User: anonymous   Login
Location: Unspecified
(0.0000°N, 0.0000°E)
Time: 21:23:46
(UTC+02:00)
Language:

Cosmos 1898 Rocket - Orbit

View from above orbital plane
View from above orbital plane
View from above satellite
View from above satellite

Ground track
Ground track

The orbit data is extracted from the following two-line orbital elements,

1 18586U 87098B   15238.86813390  .00000141  00000-0  56882-4 0  9996
2 18586 074.0053 071.1347 0021943 283.1597 176.7843 14.36646640452531
Epoch (UTC): 26 August 2015 20:50:06
Eccentricity: 0.0021943
inclination: 74.0053°
perigee height: 754 km
apogee height: 785 km
right ascension of ascending node: 71.1347°
argument of perigee: 283.1597°
revolutions per day: 14.36646640
mean anomaly at epoch: 176.7843°
orbit number at epoch: 45253

The dashed part of the orbit path shows where the satellite is in the earth's shadow,  

DLR